Regional Weather Roundup
Issued by NWS Upton, NY

Current Version | Previous Version | Text Only | Print | Product List | Glossary On
Versions: 1 2 3 4 5 6 7 8 9 10 11 12 13 14 15 16 17 18 19 20 21 22 23 24 25 26 27 28 29 30 31 32 33 34 35 36 37 38 39 40 41 42 43 44 45 46 47 48 49 50
000
ASUS41 KOKX 281508
RWROKX

REGIONAL WEATHER ROUNDUP
NATIONAL WEATHER SERVICE NEW YORK NY
1000 AM EST TUE FEB 28 2017

NOTE: "FAIR" INDICATES FEW OR NO CLOUDS BELOW 12,000 FEET WITH NO
SIGNIFICANT WEATHER AND/OR OBSTRUCTIONS TO VISIBILITY.

NYZ071-072-176-178-NJZ106-104-281600-
NEW YORK CITY METRO AREA

CITY           SKY/WX    TMP DP  RH WIND       PRES   REMARKS
Central Park   MOSUNNY   51  37  58 VRB3      30.36F
Wall St Helipt SUNNY     52  39  62 NE6       30.36R
LaGuardia APRT MOSUNNY   47  38  71 NE10      30.35F
Kennedy INTL   MOSUNNY   53  46  77 SE8       30.36S
Breezy Point   NOT AVBL
Newark/Liberty MOSUNNY   53  36  52 VRB3      30.34F
Teterboro      MOSUNNY   53  38  56 E6        30.34F
$$

NYZ177-179-078>081-281600-
LONG ISLAND NEW YORK

CITY           SKY/WX    TMP DP  RH WIND       PRES   REMARKS
Jones Beach    NOT AVBL
Matinecock PT  NOT AVBL
Farmingdale    CLOUDY    52  45  77 SE7       30.35F
MacArthur/ISP  CLOUDY    50  44  80 E6        30.35S
Shirley        CLOUDY    49  44  83 E3        30.36F
Westhampton    CLOUDY    49  44  83 E5        30.37F
Southampton      N/A     46  45  93 E2        30.34S
Bridgehampton  NOT AVBL
East Hampton   RAIN      46  44  92 CALM      30.36F
Montauk          N/A     48  43  82 CALM      30.38F
$$

NYZ052-065-067-281600-
HUDSON VALLEY

CITY           SKY/WX    TMP DP  RH WIND       PRES   REMARKS
White Plains   PTSUNNY   48  36  63 E5G16     30.33F
Newburgh       MOSUNNY   50  36  57 SE8       30.33F
Montgomery     MOSUNNY   50  35  56 CALM      30.32F
Poughkeepsie   SUNNY     51  33  50 VRB5      30.33F
Albany         PTSUNNY   47  31  53 S5        30.34F
$$

NJZ001-105-106-008-010-013-015-019>022-104-281600-
NEW JERSEY

CITY           SKY/WX    TMP DP  RH WIND       PRES   REMARKS
Newark/Liberty MOSUNNY   53  36  52 VRB3      30.34F
Teterboro      MOSUNNY   53  38  56 E6        30.34F
Caldwell       SUNNY     51  35  54 E5        30.34F
Somerville     SUNNY     53  35  50 CALM      30.31F
Linden         NOT AVBL
Sussex         MOSUNNY   50  35  56 E3        30.32F
Andover          N/A     51  34  52 NE3       30.32F
Trenton        SUNNY     54  37  52 CALM      30.32F
Millville      SUNNY     61  50  67 SW7       30.32F
Atlantic City  SUNNY     61  50  67 CALM      30.32F
Wrightstown    MOSUNNY   57  44  62 CALM      30.30F
Toms River     SUNNY     60  51  72 S6        30.32F
Belmar         CLOUDY    55  47  74 VRB6      30.34F
$$

PAZ047>061-062-071-281600-
EASTERN PENNSYLVANIA

CITY           SKY/WX    TMP DP  RH WIND       PRES   REMARKS
Philadelphia   MOSUNNY   56  40  55 NE6       30.32F
Allentown      SUNNY     53  34  48 E5        30.30F
Scranton       SUNNY     53  33  46 CALM      30.27F
$$

CTZ002-004>006-009-010-012-RIZ004-006-007-MAZ004-011-015-281600-
SOUTHERN NEW ENGLAND
 IN CT

CITY           SKY/WX    TMP DP  RH WIND       PRES   REMARKS
Bradley INTL   PTSUNNY   46  33  60 CALM      30.36F
Hartford       PTSUNNY   46  35  65 CALM      30.36F
Danbury        SUNNY     48  32  53 N5        30.36F
Wtrbury/Oxford MOSUNNY   46  30  53 SE6       30.35F
Bridgeport     CLOUDY    47  38  71 E9        30.37F
Meriden        PTSUNNY   49  35  58 CALM      30.35F
New Haven      CLOUDY    48  38  68 E5        30.37F
Chester          N/A     46  37  71 E3        30.36F
Groton         CLOUDY    49  40  71 SE6       30.38F
Wilimantic     CLOUDY    43  35  73 CALM      30.38F

 IN RI

CITY           SKY/WX    TMP DP  RH WIND       PRES   REMARKS
Providence     CLOUDY    47  36  65 E3        30.39F
Block Island   CLOUDY    47  43  86 SE7       30.39F
Westerly       CLOUDY    49  39  68 E3        30.39F
 IN MA

CITY           SKY/WX    TMP DP  RH WIND       PRES   REMARKS
Boston         CLOUDY    45  35  68 S5        30.40F
Worcester      CLOUDY    43  29  57 VRB6      30.35F
Westfield      CLOUDY    45  31  58 VRB3      30.36F
Provincetown   CLOUDY    45  38  76 CALM      30.42F
Nantucket      PTSUNNY   46  40  79 S6        30.42S
$$

ANZ330-335-338-340-345-350-353-355-281600-
COASTAL MARINE OBSERVATIONS


STATION/POSITION TIME  SKY/WX   TEMP    WIND        PRES    VSBY  WAVE
                                AIR SEA DIR/SP/G                  HT/PER
                 (UTC)          (F)     (DEG/KT/KT) (MB)    (MI)  (FT/S)
NY HARB ENTRANCE 1350            44 43   90/  6/  6 1028.1          2/ 8
20 S FIRE ISLAND 1450            47 43  190/  8/ 10 1027.3          2/ 8
GREAT SOUTH BAY  NOT AVBL
23 SSW MONTAUK P 1350            47 46              1028.9          2/ 8
15 E BARNEGAT LI 1430               43                N/A           2/ 8
HUDSON CANYON    NOT AVBL
KINGS POINT      1442            44 40              1027.7
EXECUTION ROCKS  NOT AVBL
CENTRAL LI SOUND 1430            41      80/ 10/ 12   N/A
EASTERN LI SOUND NOT AVBL
ROBBINS REEF     1448            47      30/  6/  6 1027.7
$$


>>>>>>>>>>>>>>>>>>>>>>>>>>>> KEY <<<<<<<<<<<<<<<<<<<<<<<<<<<
>                                                          <
>     SKY/WX - Sky Condition/Present Weather               <
>     TMP    - Temperature in Fahrenheit                   <
>     DP     - Dew Point in Fahrenheit                     <
>     RH     - Relative Humidity in Percent                <
>     WIND   - Direction (from) and Speed in MPH           <
>     PRES   - Mean Sea Level Pressure (inches of Hg)      <
>     WCI    - Wind Chill Index                            <
>     VSB    - VISIBILITY IN MILES                         <
>     HX     - HEAT INDEX                                  <
>     TC     - TEMPERATURE IN CELSIUS                      <
>     VRB    - VARIABLE WIND DIRECTION                     <
>                                                          <
>>>>>>>>>>>>>>>>>>>>>>>>>>>> KEY <<<<<<<<<<<<<<<<<<<<<<<<<<<



USA.gov is the U.S. government's official web portal to all federal, state and local government web resources and services.